User: anonymous   Login
Location: ?????
(30.4569°N, 47.8921°E)
Time: 03:23:19
(UTC+00:00)
Language:

Cosmos 1605 Rocket - Orbit

View from above orbital plane
View from above orbital plane
View from above satellite
View from above satellite

Ground track
Ground track

The orbit data is extracted from the following two-line orbital elements,

1 15360U 84109B   20221.91437584 -.00000009 +00000-0 -24792-4 0  9994
2 15360 082.9385 275.1914 0042665 081.2613 279.3372 13.76774969799383
Epoch (UTC): 08 August 2020 21:56:42
Eccentricity: 0.0042665
inclination: 82.9385°
perigee height: 944 km
apogee height: 1007 km
right ascension of ascending node: 275.1914°
argument of perigee: 81.2613°
revolutions per day: 13.76774969
mean anomaly at epoch: 279.3372°
orbit number at epoch: 79938

The dashed part of the orbit path shows where the satellite is in the earth's shadow,  

DLR